STARLINK G

Last updated on June 19, 2020, 12:02 a.m. UTC

1 45736U 20038G   20170.66667824  .01804383  17412-2  33944-2 0  9992
2 45736  53.0001 272.2814 0098984  69.8231  14.8749 15.91962306  2129

Satellite is not in orbit.